Weather History for KBBB - January, 2014

Change the Weather History Date:

Friday, January 24, 2014

  Actual Average Record
Temperature  
Mean Temperature 22 °F -  
Max Temperature 35 °F 23 °F 63 °F (1981)
Min Temperature 10 °F 4 °F -25 °F (2008)
Degree Days  
Heating Degree Days 42    
Moisture  
Dew Point 21 °F    
Average Humidity 78    
Maximum Humidity 100    
Minimum Humidity 57    
Precipitation  
Precipitation 0.00 in - - ()
Sea Level Pressure  
Sea Level Pressure 29.68 in    
Wind  
Wind Speed 14 mph (NW)    
Max Wind Speed 28 mph    
Max Gust Speed 34 mph    
Visibility 9 miles    
Events Snow    
Averages and records for this station are not official NWS values.
T = Trace of Precipitation, MM = Missing Value Source: NWS Daily Summary

Daily Weather History Graph

Daily Weather History Graph

Search for Another Location

Airport or City:

Trip Planner

Search our weather history database for the weather conditions in past years. The results will help you decide how hot, cold, wet, or windy it might be!

Date:

Astronomy

Jan. 24, 2014 Rise Set
Actual Time 7:51 AM CST 5:18 PM CST
Civil Twilight 7:19 AM CST 5:50 PM CST
Nautical Twilight 6:43 AM CST 6:26 PM CST
Astronomical Twilight 6:08 AM CST 7:01 PM CST
Moon 1:15 AM CST (1/24) 11:40 AM CST (1/24)
Length of Visible Light 10h 31m
Length of Day
9h 26m
Last Quarter, 44% of the Moon is Illuminated
Jan 24
Last Quarter
Jan 30
New
Feb 6
First Quarter
Feb 14
Full
Feb 22
Last Quarter

Hourly Weather History & Observations

Time (CST) Temp. Windchill Dew Point Humidity Pressure Visibility Wind Dir Wind Speed Gust Speed Precip Events Conditions
12:13 AM 10.4 °F -6.0 °F -0.4 °F 62% 29.99 in 10.0 mi SW 15.0 mph - N/A   Overcast
12:33 AM 12.2 °F -1.8 °F -0.4 °F 57% 29.96 in 10.0 mi SW 11.5 mph - N/A   Overcast
12:52 AM 12.2 °F -2.5 °F 1.4 °F 62% 29.93 in 10.0 mi SW 12.7 mph - N/A   Mostly Cloudy
1:13 AM 14.0 °F 1.2 °F 1.4 °F 57% 29.93 in 10.0 mi WSW 10.4 mph - N/A   Mostly Cloudy
1:33 AM 15.8 °F 2.1 °F 3.2 °F 58% 29.89 in 10.0 mi SW 12.7 mph - N/A   Overcast
1:52 AM 15.8 °F 2.1 °F 6.8 °F 68% 29.87 in 10.0 mi WSW 12.7 mph - N/A   Overcast
2:13 AM 17.6 °F 4.3 °F 8.6 °F 68% 29.86 in 10.0 mi WSW 12.7 mph - N/A   Overcast
2:33 AM 19.4 °F 7.2 °F 8.6 °F 63% 29.85 in 10.0 mi WSW 11.5 mph - N/A   Overcast
2:52 AM 19.4 °F 7.9 °F 10.4 °F 68% 29.85 in 10.0 mi West 10.4 mph - N/A Snow Light Snow
3:13 AM 19.4 °F 7.2 °F 12.2 °F 74% 29.83 in 4.0 mi WSW 11.5 mph - N/A Snow Light Snow
3:33 AM 19.4 °F 7.9 °F 12.2 °F 74% 29.82 in 10.0 mi West 10.4 mph - N/A Snow Light Snow
3:52 AM 21.2 °F 9.5 °F 12.2 °F 68% 29.81 in 10.0 mi WSW 11.5 mph - N/A   Overcast
4:13 AM 21.2 °F 10.1 °F 12.2 °F 68% 29.79 in 10.0 mi West 10.4 mph - N/A   Overcast
4:33 AM 21.2 °F 8.9 °F 12.2 °F 68% 29.78 in 10.0 mi West 12.7 mph - N/A   Overcast
4:52 AM 23.0 °F 11.7 °F 14.0 °F 68% 29.77 in 10.0 mi West 11.5 mph 17.3 mph N/A   Overcast
5:13 AM 23.0 °F 12.4 °F 15.8 °F 74% 29.77 in 10.0 mi West 10.4 mph - N/A   Overcast
5:32 AM 23.0 °F 11.1 °F 15.8 °F 74% 29.76 in 10.0 mi West 12.7 mph - N/A   Overcast
5:53 AM 24.8 °F 14.0 °F 15.8 °F 69% 29.75 in 10.0 mi West 11.5 mph - N/A   Overcast
6:13 AM 26.6 °F 15.2 °F 17.6 °F 69% 29.75 in 10.0 mi WNW 13.8 mph - N/A   Overcast
6:32 AM 26.6 °F 15.2 °F 17.6 °F 69% 29.75 in 10.0 mi WNW 13.8 mph - N/A   Overcast
6:53 AM 26.6 °F 15.2 °F 19.4 °F 74% 29.74 in 10.0 mi WNW 13.8 mph - N/A   Overcast
7:13 AM 26.6 °F 15.7 °F 19.4 °F 74% 29.73 in 10.0 mi WNW 12.7 mph - N/A   Overcast
7:32 AM 26.6 °F 15.2 °F 21.2 °F 80% 29.74 in 10.0 mi NW 13.8 mph - N/A   Overcast
7:53 AM 26.6 °F 15.7 °F 21.2 °F 80% 29.73 in 10.0 mi NW 12.7 mph - N/A   Overcast
8:13 AM 26.6 °F 15.7 °F 21.2 °F 80% 29.73 in 10.0 mi NW 12.7 mph - N/A   Overcast
8:32 AM 26.6 °F 14.7 °F 21.2 °F 80% 29.71 in 10.0 mi NW 15.0 mph - N/A   Overcast
8:53 AM 26.6 °F 14.3 °F 21.2 °F 80% 29.72 in 10.0 mi NW 16.1 mph 19.6 mph N/A   Mostly Cloudy
9:13 AM 26.6 °F 14.7 °F 21.2 °F 80% 29.71 in 10.0 mi NW 15.0 mph - N/A   Scattered Clouds
9:32 AM 26.6 °F 14.3 °F 21.2 °F 80% 29.71 in 10.0 mi NW 16.1 mph - N/A   Scattered Clouds
9:53 AM 26.6 °F 14.3 °F 21.2 °F 80% 29.70 in 10.0 mi NW 16.1 mph - N/A   Clear
10:13 AM 26.6 °F 14.7 °F 23.0 °F 86% 29.69 in 10.0 mi NW 15.0 mph - N/A   Clear
10:32 AM 28.4 °F 17.5 °F 23.0 °F 80% 29.68 in 10.0 mi NW 13.8 mph - N/A   Clear
10:53 AM 28.4 °F 16.2 °F 24.8 °F 86% 29.68 in 10.0 mi NW 17.3 mph - N/A   Mostly Cloudy
11:13 AM 28.4 °F 17.5 °F 24.8 °F 86% 29.67 in 10.0 mi NW 13.8 mph - N/A   Scattered Clouds
11:32 AM 30.2 °F 18.9 °F 24.8 °F 80% 29.66 in 10.0 mi NW 16.1 mph - N/A   Scattered Clouds
11:53 AM 30.2 °F 19.8 °F 24.8 °F 80% 29.65 in 10.0 mi WNW 13.8 mph - N/A   Scattered Clouds
12:13 PM 30.2 °F 19.8 °F 26.6 °F 86% 29.64 in 10.0 mi WNW 13.8 mph - N/A   Scattered Clouds
12:32 PM 32.0 °F 22.5 °F 26.6 °F 80% 29.62 in 10.0 mi WNW 12.7 mph - N/A   Clear
12:53 PM 33.8 °F 24.3 °F 26.6 °F 75% 29.59 in 10.0 mi WNW 13.8 mph - N/A   Clear
1:13 PM 33.8 °F 23.5 °F 28.4 °F 81% 29.58 in 10.0 mi NW 16.1 mph - N/A   Clear
1:32 PM 35.6 °F 26.2 °F 28.4 °F 75% 29.58 in 10.0 mi NW 15.0 mph - N/A   Mostly Cloudy
1:53 PM 35.6 °F 25.9 °F 28.4 °F 75% 29.56 in 10.0 mi WNW 16.1 mph - N/A   Mostly Cloudy
2:12 PM 35.6 °F 25.9 °F 28.4 °F 75% 29.54 in 10.0 mi WNW 16.1 mph - N/A   Mostly Cloudy
2:33 PM 35.6 °F 25.9 °F 30.2 °F 81% 29.53 in 10.0 mi NW 16.1 mph - N/A   Mostly Cloudy
2:53 PM 35.6 °F 26.6 °F 30.2 °F 81% 29.54 in 10.0 mi NW 13.8 mph 19.6 mph N/A   Mostly Cloudy
3:12 PM 35.6 °F 26.6 °F 30.2 °F 81% 29.53 in 2.5 mi NW 13.8 mph - N/A Snow Light Snow
3:33 PM 33.8 °F 24.3 °F 30.2 °F 87% 29.53 in 1.8 mi NW 13.8 mph - N/A Snow Light Snow
3:53 PM 33.8 °F 23.9 °F 32.0 °F 93% 29.52 in 1.8 mi NW 15.0 mph - N/A Snow Light Snow
4:12 PM 33.8 °F 24.3 °F 32.0 °F 93% 29.52 in 1.5 mi NW 13.8 mph - N/A Snow Light Snow
4:33 PM 33.8 °F 23.2 °F 32.0 °F 93% 29.52 in 4.0 mi NNW 17.3 mph - N/A Snow Light Snow
4:53 PM 33.8 °F 22.5 °F 33.8 °F 100% 29.52 in 3.0 mi NNW 19.6 mph - N/A   Overcast
5:12 PM 33.8 °F 22.8 °F 33.8 °F 100% 29.52 in 5.0 mi NNW 18.4 mph 25.3 mph N/A   Overcast
5:33 PM 33.8 °F 22.8 °F 32.0 °F 93% 29.53 in 10.0 mi NNW 18.4 mph 27.6 mph N/A   Overcast
5:52 PM 33.8 °F 22.5 °F 33.8 °F 100% 29.54 in 7.0 mi North 19.6 mph 28.8 mph N/A   Overcast
6:13 PM 33.8 °F 20.5 °F 30.2 °F 87% 29.55 in 10.0 mi North 27.6 mph 34.5 mph N/A   Overcast
6:33 PM 33.8 °F 23.5 °F 30.2 °F 87% 29.56 in 10.0 mi North 16.1 mph 26.5 mph N/A   Overcast
6:52 PM 33.8 °F 21.9 °F 30.2 °F 87% 29.57 in 10.0 mi North 21.9 mph 28.8 mph N/A   Overcast
7:13 PM 33.8 °F 22.5 °F 28.4 °F 81% 29.58 in 10.0 mi North 19.6 mph 28.8 mph N/A   Overcast
7:33 PM 33.8 °F 23.5 °F 26.6 °F 75% 29.58 in 10.0 mi North 16.1 mph - N/A   Overcast
7:52 PM 33.8 °F 23.9 °F 26.6 °F 75% 29.59 in 10.0 mi North 15.0 mph - N/A   Overcast
8:13 PM 32.0 °F 20.5 °F 26.6 °F 80% 29.60 in 10.0 mi North 18.4 mph 21.9 mph N/A   Overcast
8:33 PM 32.0 °F 22.5 °F 26.6 °F 80% 29.60 in 10.0 mi North 12.7 mph 19.6 mph N/A   Overcast
8:52 PM 33.8 °F 24.3 °F 28.4 °F 81% 29.60 in 10.0 mi North 13.8 mph 20.7 mph N/A   Overcast
9:13 PM 32.0 °F 18.4 °F 26.6 °F 80% 29.61 in 10.0 mi North 26.5 mph 33.4 mph N/A Snow Light Snow
9:32 PM 30.2 °F 17.4 °F 24.8 °F 80% 29.62 in 10.0 mi North 20.7 mph 27.6 mph N/A Snow Light Snow
9:53 PM 28.4 °F 14.7 °F 24.8 °F 86% 29.65 in 10.0 mi North 21.9 mph 31.1 mph N/A Snow Light Snow
10:13 PM 26.6 °F 13.1 °F 21.2 °F 80% 29.65 in 10.0 mi North 19.6 mph 28.8 mph N/A Snow Light Snow
10:32 PM 24.8 °F 11.1 °F 21.2 °F 86% 29.67 in 3.0 mi North 18.4 mph 27.6 mph N/A Snow Light Snow
10:53 PM 24.8 °F 11.5 °F 19.4 °F 80% 29.68 in 10.0 mi North 17.3 mph 25.3 mph N/A Snow Light Snow
11:13 PM 23.0 °F 6.9 °F 15.8 °F 74% 29.69 in 10.0 mi North 24.2 mph 33.4 mph N/A Snow Light Snow
11:32 PM 21.2 °F 5.2 °F 12.2 °F 68% 29.71 in 10.0 mi NNE 21.9 mph 28.8 mph N/A   Overcast
11:53 PM 19.4 °F 3.6 °F 6.8 °F 58% 29.73 in 10.0 mi North 19.6 mph 34.5 mph N/A   Overcast